User: anonymous   Login
Location: Caribou
(46.8667°N, 68.0167°W)
Time: 17:14:51
(UTC-05:00)
Language:

SL-08 RB Rocket - Orbit

View from above orbital plane
View from above orbital plane
View from above satellite
View from above satellite

Ground track
Ground track

The orbit data is extracted from the following two-line orbital elements,

1 26387U 00033D   16336.80888112 +.00000122 +00000-0 +29661-4 0  9990
2 26387 097.9988 039.8687 0025358 242.9434 254.7955 14.68220794136606
Epoch (UTC): 01 December 2016 19:24:47
Eccentricity: 0.0025358
inclination: 97.9988°
perigee height: 649 km
apogee height: 684 km
right ascension of ascending node: 39.8687°
argument of perigee: 242.9434°
revolutions per day: 14.68220794
mean anomaly at epoch: 254.7955°
orbit number at epoch: 13660

The dashed part of the orbit path shows where the satellite is in the earth's shadow,  

DLR